N2HMM-13 Weather Reports


time (UTC)temp
F
wind
direction
speed
knots
gust
knots
rain 1hr
in
rain 24hr
in
rain mn
in
humidity
%
barometer
mb
20260510131505 60 207 5.2 7.0 0.00 0.44 0.00 92 995.6
20260510124505 56 207 5.2 7.0 0.00 0.44 0.00 99 995.1
20260510121506 52 207 5.2 7.0 0.00 0.44 0.00 99 995.4
20260510120006 51 207 5.2 7.0 0.00 0.44 0.00 99 995.3
20260510114504 51 207 5.2 7.0 0.00 0.44 0.00 99 995.0
20260510111504 51 207 5.2 7.0 0.00 0.44 0.00 99 994.9
20260510110005 50 207 5.2 7.0 0.00 0.44 0.00 99 994.5
20260510104505 50 207 5.2 7.0 0.00 0.44 0.00 99 994.7
20260510103004 50 207 5.2 7.0 0.00 0.44 0.00 99 994.2
20260510101504 50 207 5.2 7.0 0.00 0.44 0.00 99 994.2
20260510100006 50 207 5.2 7.0 0.00 0.44 0.00 99 994.1
20260510094504 50 207 5.2 7.0 0.00 0.44 0.00 99 993.9
20260510091505 49 207 5.2 7.0 0.00 0.44 0.00 99 993.8
20260510090004 49 207 5.2 7.0 0.00 0.44 0.00 99 993.9
20260510084506 49 207 5.2 7.0 0.00 0.44 0.00 99 994.0
20260510083005 49 207 5.2 7.0 0.00 0.44 0.00 99 994.3
20260510080005 49 207 5.2 7.0 0.00 0.45 0.00 99 994.7
20260510074505 48 207 5.2 7.0 0.00 0.45 0.00 99 994.8
20260510073005 49 207 5.2 7.0 0.00 0.45 0.00 99 995.2
20260510071504 48 207 5.2 7.0 0.00 0.45 0.00 99 995.0
20260510070005 46 207 5.2 7.0 0.00 0.45 0.00 99 994.8
20260510063005 45 207 5.2 7.0 0.00 0.45 0.00 99 994.6
20260510061505 44 207 5.2 7.0 0.00 0.47 0.00 99 994.7
20260510060007 44 207 5.2 7.0 0.00 0.49 0.00 99 994.7
20260510054505 44 207 5.2 7.0 0.00 0.49 0.00 99 995.0
20260510053005 44 207 5.2 7.0 0.00 0.49 0.00 99 994.7
20260510050005 44 207 5.2 7.0 0.00 0.49 0.00 99 994.5
20260510044506 45 207 5.2 7.0 0.22 0.49 0.00 99 994.4
20260510043005 45 207 5.2 7.0 0.22 0.49 0.00 99 994.5
20260510041505 45 207 5.2 7.0 0.22 0.49 0.00 99 994.6
20260510040005 46 207 5.2 7.0 0.00 0.27 0.00 99 994.5
20260510034505 46 207 5.2 7.0 0.00 0.27 0.22 99 994.2
20260510031505 47 207 5.2 7.0 0.00 0.27 0.22 99 994.0
20260510030006 47 207 5.2 7.0 0.00 0.27 0.22 99 994.1
20260510021505 49 207 5.2 7.0 0.00 0.27 0.22 99 994.0
20260510020005 49 207 5.2 7.0 0.00 0.27 0.22 99 994.0
20260510014505 49 207 5.2 7.0 0.00 0.27 0.22 99 994.2
20260510013005 50 207 5.2 7.0 0.00 0.27 0.22 99 994.1
20260510011505 51 207 5.2 7.0 0.00 0.27 0.22 99 994.0
20260510010005 52 207 5.2 7.0 0.00 0.27 0.22 99 993.7
20260510004505 52 207 5.2 7.0 0.00 0.27 0.22 99 993.5
20260510003005 52 207 5.2 7.0 0.00 0.27 0.22 99 993.3
20260510001505 53 207 5.2 7.0 0.00 0.27 0.22 99 993.3
20260510000006 53 207 5.2 7.0 0.00 0.27 0.22 99 993.1
20260509234506 54 207 5.2 7.0 0.00 0.27 0.22 99 993.2
20260509233005 55 207 5.2 7.0 0.00 0.27 0.22 99 992.9
20260509231505 56 207 5.2 7.0 0.00 0.27 0.22 99 992.8
20260509224505 57 207 5.2 7.0 0.00 0.27 0.22 96 992.9
20260509223005 59 207 5.2 7.0 0.00 0.27 0.22 93 992.8
20260509221506 57 207 5.2 7.0 0.00 0.27 0.22 98 992.6
20260509214505 55 207 5.2 7.0 0.01 0.27 0.23 99 993.1
20260509213006 55 207 5.2 7.0 0.01 0.27 0.23 99 993.0
20260509211505 55 207 5.2 7.0 0.03 0.27 0.24 99 993.1
20260509210005 55 207 5.2 7.0 0.06 0.27 0.24 99 993.2
20260509201505 54 207 5.2 7.0 0.06 0.23 0.20 99 993.7
20260509200005 54 207 5.2 7.0 0.05 0.21 0.18 99 994.0
20260509194505 55 207 5.2 7.0 0.04 0.19 0.17 99 994.1
20260509191505 55 207 5.2 7.0 0.05 0.17 0.14 99 994.4
20260509190006 55 207 5.2 7.0 0.07 0.16 0.13 99 994.4
20260509184505 55 207 5.2 7.0 0.07 0.15 0.13 99 994.5
20260509183005 54 207 5.2 7.0 0.07 0.14 0.13 99 994.8
20260509181505 55 207 5.2 7.0 0.03 0.12 0.09 99 995.0
20260509180005 56 207 5.2 7.0 0.01 0.10 0.06 98 994.6
20260509174505 56 207 5.2 7.0 0.00 0.10 0.06 98 994.6
20260509173005 56 207 5.2 7.0 0.00 0.10 0.06 98 994.4
20260509171505 56 207 5.2 7.0 0.00 0.10 0.06 100 994.3
20260509170005 56 207 5.2 7.0 0.00 0.11 0.06 99 994.4
20260509164506 55 207 5.2 7.0 0.00 0.11 0.06 99 994.3
20260509161505 54 207 5.2 7.0 0.01 0.11 0.06 97 994.8
20260509160007 53 207 5.2 7.0 0.01 0.11 0.06 99 994.8
20260509154506 53 207 5.2 7.0 0.02 0.10 0.06 99 995.0
20260509153005 53 207 5.2 7.0 0.02 0.10 0.06 99 995.2
20260509151505 53 207 5.2 7.0 0.02 0.10 0.05 98 995.4
20260509150005 53 207 5.2 7.0 0.01 0.09 0.05 98 995.4
20260509143006 53 207 5.2 7.0 0.00 0.08 0.04 97 994.7
20260509140006 52 207 5.2 7.0 0.00 0.08 0.04 99 994.9
20260509134505 51 207 5.2 7.0 0.00 0.08 0.04 100 995.0
20260509133005 51 207 5.2 7.0 0.00 0.08 0.04 100 995.1